EHI
0 0 0 0 0 0 0 0 0 0 0 0 0 0 0 0 0 0 0 0 0 0 0 0 0 0 0 0 0 0 0 0 0 0 0 0 0 0 0 0 0 0 0 0
0 0 0 0 0 0 0 0 0 0 0 0 0 0 0 0 0 0 0 0 0 0 0 0 0 0 0 0 0 0 0 0 0 0 0 0 0 0 0 0 0 0 0 0
0 0 0 0 0 0 0 0 0 0 0 0 0 0 0 0 0 0 0 0 0 0 0 0 0 0 0 0 0 0 0 0 0 0 0 0 0 0 0 0 0 0 0 0
0 0 0 0 0 0 0 0 0 0 0 0 0 0 0 0 0 0 0 0 0 0 0 0 0 0 0 0 0 0 0 0 0 0 0 0 0 0 0 0 0 0 0 0
0 0 0 0 0 0 0 0 0 0 0 0 0 0 0 0 0 0 0 0 0 0 0 0 0 0 0 0 0 0 0 0 0 0 0 0 0 0 0 0 0 0 0 0
0 0 0 0 0 0 0 0 0 0 0 0 0 0 0 0 0 0 0 0 0 0 0 0 0 0 0 0 0 0 0 0 0 0 0 0 0 0 0 0 0 0 0 0
0 0 0 0 0 0 0 0 0 0 0 0 0 0 0 0 0 0 0 0 0 0 0 0 0 0 0 0 0 0 0 0 0 0 0 0 0 0 0 0 0 0 0 0
0 0 0 0 0 0 0 0 0 0 0 0 0 0 0 0 0 0 0 0 0 0 0 0 0 0 0 0 0 0 0 0 0 0 0 0 0 0 0 0 0 0 0 0
0 0 0 0 0 0 0 0 0 0 0 0 0 0 0 0 0 0 0 0 0 0 0 0 0 0 0 0 0 0 0 0 0 0 0 0 0 0 0 0 0 0 0 0
0 0 0 0 0 0 0 0 0 0 0 0 0 0 0 0 0 0 0 0 0 0 0 0 0 0 0 0 0 0 0 0 0 0 0 0 0 0 0 0 0 0 0 0
0 0 0 0 0 0 0 0 0 0 0 0 0 0 0 0 0 0 0 0 0 0 0 0 0 0 0 0 0 0 0 0 0 0 0 0 0 0 0 0 0 0 0 0
0 0 0 0 0 0 0 0 0 0 0 0 0 0 0 0 0 0 0 0 0 0 0 0 0 0 0 0 0 0 0 0 0 0 0 0 0 0 0 0 0 0 0 0
0 0 0 0 0 0 0 0 0 0 0 0 0 0 0 0 0 0 0 0 0 0 0 0 0 0 0 0 0 0 0 0 0 0 0 0 0 0 0 0 0 0 0 0
0 0 0 0 0 0 0 0 0 0 0 0 0 0 0 0 0 0 0 0 0 0 0 0 0 0 0 0 0 0 0 0 0 0 0 0 0 0 0 0 0 0 0 0
0 0 0 0 0 0 0 0 0 0 0 0 0 0 0 0 0 0 0 0 0 0 0 0 0 0 0 0 0 0 0 0 0 0 0 0 0 0 0 0 0 0 0 0
0 0 0 0 0 0 0 0 0 0 0 0 0 0 0 0 0 0 0 0 0 0 0 0 0 0 0 0 0 0 0 0 0 0 0 0 0 0 0 0 0 0 0 0
0 0 0 0 0 0 0 0 0 0 0 0 0 0 0 0 0 0 0 0 0 0 0 0 0 0 0 0 0 0 0 0 0 0 0 0 0 0 0 0 0 0 0 0
0 0 0 0 0 0 0 0 0 0 0 0 0 0 0 0 0 0 0 0 0 0 0 0 0 0 0 0 0 0 0 0 0 0 0 0 0 0 0 0 0 0 0 0
0 0 0 0 0 0 0 0 0 0 0 0 0 0 0 0 0 0 0 0 0 0 0 0 0 0 0 0 0 0 0 0 0 0 0 0 0 0 0 0 0 0 0 0
0 0 0 0 0 0 0 0 0 0 0 0 0 0 0 0 0 0 0 0 0 0 0 0 0 0 0 0 0 0 0 0 0 0 0 0 0 0 0 0 0 0 0 0
0 0 0 0 0 0 0 0 0 0 0 0 0 0 0 0 0 0 0 0 0 0 0 0 0 0 0 0 0 0 0 0 0 0 0 0 0 0 0 0 0 0 0 0
0 0 0 0 0 0 0 0 0 0 0 0 0 0 0 0 0 0 0 0 0 0 0 0 0 0 0 0 0 0 0 0 0 0 0 0 0 0 0 0 0 0 0 0
0 0 0 0 0 0 0 0 0 0 0 0 0 0 0 0 0 0 0 0 0 0 0 0 0 0 0 0 0 0 0 0 0 0 0 0 0 0 0 0 0 0 0 0
0 0 0 0 0 0 0 0 0 0 0 0 0 0 0 0 0 0 0 0 0 0 0 0 0 0 0 0 0 0 0 0 0 0 0 0 0 0 0 0 0 0 0 0
0 0 0 0 0 0 0 0 0 0 0 0 0 0 0 0 0 0 0 0 0 0 0 0 0 0 0 0 0 0 0 0 0 0 0 0 0 0 0 0 0 0 0 0
0 0 0 0 0 0 0 0 0 0 0 0 0 0 0 0 0 0 0 0 0 0 0 0 0 0 0 0 0 0 0 0 0 0 0 0 0 0 0 0 0 0 0 0
0 0 0 0 0 0 0 0 0 0 0 0 0 0 0 0 0 0 0 0 0 0 0 0 0 0 0 0 0 0 0 0 0 0 0 0 0 0 0 0 0 0 0 0
Wind_Speed
5 4 2 5 6 6 8 8 8 9 9 13 10 8 7 7 6 5 6 6 5 5 4 3 3 3 2 2 2 2 2 2 2 2 2 2 2 2 2 2 2 2 1 2
3 2 3 6 8 8 8 7 8 9 13 10 8 5 5 5 5 5 6 6 6 6 5 4 3 3 3 2 2 2 1 1 1 2 2 2 2 2 2 2 2 2 1 2
3 4 4 7 7 8 6 6 7 9 10 6 6 6 5 4 5 5 6 6 6 6 5 4 3 3 2 2 2 1 1 1 1 2 2 2 2 2 2 2 2 2 2 2
1 4 5 7 1 4 5 7 8 8 7 6 7 7 5 4 4 5 5 5 6 5 5 4 3 3 2 2 1 1 1 1 1 2 2 2 2 2 1 1 1 1 1 1
1 2 9 8 2 4 4 7 6 8 8 7 6 5 5 3 2 3 4 5 5 4 4 3 3 2 2 2 2 1 1 1 1 1 1 1 1 1 1 1 1 1 1 2
3 2 7 6 1 2 2 6 4 4 5 4 3 3 6 4 3 3 4 4 4 4 3 3 3 1 1 1 2 2 2 1 1 0 1 0 0 0 1 1 1 1 1 1
4 5 10 6 2 3 2 7 3 3 4 3 3 5 6 5 5 4 4 4 4 3 3 3 2 1 1 1 2 2 2 1 1 1 0 0 0 1 1 1 1 1 1 1
5 4 10 3 5 6 7 3 2 3 3 4 5 5 5 5 5 5 5 4 4 3 3 3 2 1 1 1 2 1 1 1 1 1 0 0 1 1 1 1 2 1 1 1
9 9 4 4 6 4 2 3 4 3 4 4 4 4 4 4 4 4 4 4 3 2 3 4 2 1 1 2 1 1 1 1 1 1 1 1 1 1 1 1 1 0 1 1
6 9 6 6 6 5 4 5 5 4 4 3 4 4 4 4 4 4 4 3 3 3 3 4 3 2 1 1 1 1 1 1 1 1 1 1 1 0 1 1 1 1 1 0
7 8 6 5 6 6 5 4 4 4 3 3 3 3 3 3 4 3 3 3 3 2 2 3 3 2 2 1 1 1 1 1 1 1 1 0 0 0 1 1 1 1 1 1
8 6 5 5 4 3 3 4 4 4 3 2 3 3 3 3 3 3 3 3 3 3 3 3 2 2 2 1 1 1 0 0 0 0 0 0 0 1 2 1 1 1 0 1
5 2 4 5 3 2 2 3 3 3 3 3 2 2 2 2 2 2 3 3 3 3 3 2 2 2 2 1 1 1 0 0 0 0 0 0 0 0 1 2 2 2 2 2
4 2 3 3 3 2 2 2 2 1 1 1 2 1 1 1 2 2 3 3 3 2 2 2 1 1 2 1 1 0 0 0 0 0 0 0 0 0 0 1 1 2 2 3
4 5 5 3 2 2 1 0 1 2 2 2 1 1 1 1 2 3 3 2 2 2 2 2 1 2 2 1 0 0 0 0 0 0 0 0 0 0 1 1 0 1 1 2
2 2 2 3 3 3 1 1 2 3 2 2 2 2 2 1 2 2 3 2 2 2 2 2 2 2 1 0 0 0 0 1 0 0 0 0 0 0 0 0 0 0 1 1
2 2 3 3 4 4 3 3 3 3 3 2 2 2 1 1 2 2 3 2 2 2 2 2 2 2 1 1 0 0 1 1 0 0 0 0 0 0 0 0 0 1 1 1
5 5 4 4 4 3 3 3 3 3 3 2 1 1 1 1 1 2 3 2 2 3 2 2 2 1 1 1 1 0 1 1 1 1 0 0 0 0 0 0 0 1 1 1
3 3 3 3 3 3 2 2 2 2 2 1 1 1 1 1 2 2 2 2 2 2 3 2 3 2 2 2 1 1 1 1 1 0 0 1 1 1 1 1 1 1 1 1
1 1 1 1 1 1 2 2 1 1 1 1 1 1 1 2 1 1 1 1 2 2 2 2 2 1 1 1 1 1 1 1 0 0 0 0 1 1 1 1 1 1 1 1
2 1 1 1 1 1 1 1 1 2 1 1 2 2 2 2 1 0 0 2 2 2 1 2 2 1 1 1 1 1 1 1 0 0 1 1 1 1 1 1 1 1 1 1
2 2 2 1 1 1 2 1 1 1 1 1 1 1 1 1 1 1 1 2 2 3 2 1 1 1 1 2 1 1 1 0 0 0 1 1 1 1 1 1 1 1 1 1
2 2 2 2 2 1 1 1 1 1 2 2 2 2 2 2 1 1 2 2 1 2 2 1 2 2 2 1 1 1 0 0 0 1 1 1 1 1 1 1 1 1 1 1
2 2 2 1 1 1 1 2 1 1 1 2 2 2 2 1 1 1 1 2 3 3 1 2 2 2 2 1 1 0 0 0 1 1 0 1 1 1 1 1 1 1 1 1
2 2 2 2 2 2 2 1 1 1 1 1 1 1 1 1 2 1 1 1 2 2 1 2 3 3 2 1 1 1 1 1 1 1 0 1 1 1 1 1 1 1 1 1
2 2 2 3 3 2 2 1 1 1 1 1 1 1 0 0 0 0 0 0 1 2 1 1 1 2 1 1 1 1 1 2 2 1 1 1 1 1 1 1 1 1 1 1
1 1 1 1 2 2 2 2 2 2 2 2 1 1 0 0 0 0 1 1 1 1 1 1 1 1 1 1 1 1 1 1 1 1 1 1 1 1 1 1 1 1 0 0
Wind_Direction
261 271 234 233 229 203 202 208 220 252 261 279 299 303 306 310 322 335 335 336 336 332 325 330 335 340 354 355 1 24 27 23 14 17 32 50 44 44 40 46 45 33 57 68
291 280 264 265 251 226 225 226 242 268 277 276 294 303 305 309 319 323 323 326 328 327 327 325 324 330 345 347 353 28 38 3 7 29 38 47 47 47 48 45 39 37 56 74
281 315 332 278 240 201 211 213 203 233 255 300 309 307 300 298 307 305 309 317 319 316 312 310 312 319 321 320 351 21 18 3 20 33 40 36 45 49 50 41 38 37 44 57
312 12 261 249 222 186 213 241 224 246 270 284 279 290 295 288 281 292 305 309 309 309 313 317 324 331 330 340 3 6 6 7 21 33 34 31 49 47 47 49 44 45 55 58
125 278 281 293 249 178 199 274 231 238 267 287 304 315 312 296 275 274 285 294 296 297 302 312 317 323 343 348 358 359 350 352 9 40 45 33 39 29 53 60 40 39 52 59
143 210 253 261 235 165 109 290 264 221 259 287 337 326 301 320 318 311 310 308 310 314 322 322 319 338 7 348 355 324 317 327 355 50 80 32 26 62 62 82 54 38 39 44
186 232 264 258 209 132 168 259 281 225 253 250 233 246 282 314 318 316 317 319 320 321 325 320 327 355 4 351 314 303 331 354 16 45 93 140 97 90 94 86 70 59 51 28
169 209 256 208 146 187 225 268 260 255 256 252 263 284 301 313 316 323 325 327 327 332 329 329 335 6 360 320 303 334 5 22 32 42 52 87 99 78 80 89 82 75 73 38
197 217 249 189 208 237 252 267 266 257 270 266 274 289 305 312 316 317 317 320 329 337 331 330 336 352 322 310 343 21 38 53 53 58 71 89 107 100 85 91 106 122 101 69
253 262 259 253 257 267 258 254 267 266 270 261 266 282 296 306 313 317 320 323 331 343 335 327 332 336 298 314 13 53 56 51 65 78 59 51 69 102 120 140 174 165 155 247
256 274 298 276 245 254 266 272 279 281 267 254 252 275 280 294 304 308 314 322 328 325 315 308 325 346 339 350 72 66 54 54 56 75 81 55 21 253 245 252 231 216 214 219
233 234 216 258 263 254 252 262 263 270 281 272 240 257 277 290 296 302 311 322 330 329 320 314 337 339 337 1 88 98 56 30 54 88 85 107 95 9 359 327 315 315 317 274
238 245 226 263 279 255 246 263 267 257 251 266 267 252 270 289 300 315 319 323 322 319 316 322 344 337 333 351 61 108 181 277 124 115 106 59 52 42 355 355 7 18 22 5
242 246 270 262 263 272 259 271 280 289 274 258 261 273 281 304 317 321 313 312 319 323 327 336 356 323 322 355 58 78 88 286 229 137 147 190 272 285 280 300 335 354 7 8
242 225 236 264 284 293 293 314 330 311 312 312 293 278 282 296 301 303 308 320 341 348 343 351 352 313 325 11 66 85 243 226 164 137 134 159 208 262 279 282 312 343 358 1
263 253 244 251 261 272 276 254 256 275 286 290 294 291 288 289 301 312 322 338 355 338 333 340 325 311 315 350 76 97 188 211 201 153 148 175 243 286 304 309 336 337 327 327
190 239 237 249 255 258 249 242 241 254 266 269 271 284 308 330 336 334 332 337 335 321 323 317 307 323 346 10 90 159 158 153 108 89 109 188 273 276 286 286 285 304 301 308
219 225 218 219 230 243 255 250 245 250 252 253 272 288 275 274 286 300 316 339 2 358 339 322 322 348 4 6 40 114 120 109 104 97 73 315 300 287 287 281 268 283 303 328
235 232 230 228 228 228 243 247 245 246 249 231 228 253 263 273 281 299 325 353 354 336 327 334 352 13 7 359 14 101 113 106 82 62 18 296 319 306 293 284 284 290 300 313
238 225 215 226 238 224 239 250 239 246 244 204 194 232 281 291 302 317 330 312 285 279 293 324 350 358 351 346 7 93 110 112 110 322 290 273 270 277 283 290 289 292 296 296
226 221 209 215 269 282 255 238 224 239 250 207 200 223 252 285 301 294 290 309 313 318 321 331 353 338 338 351 13 81 96 106 162 231 239 240 253 275 278 287 297 292 290 297
217 213 222 222 237 291 294 265 234 228 231 233 232 227 237 276 299 309 271 260 289 323 344 331 323 323 344 13 64 84 94 122 217 233 235 239 241 266 276 276 284 294 295 289
211 209 213 219 226 256 298 290 250 225 223 227 227 226 227 238 242 254 295 301 301 322 339 315 316 338 5 39 69 84 84 97 260 251 250 254 257 263 274 278 272 271 270 263
204 204 209 200 159 186 272 281 275 251 237 240 235 226 215 232 279 259 262 304 325 334 342 329 341 355 20 41 51 56 24 330 308 300 296 296 288 269 274 279 272 262 252 249
198 194 186 178 198 230 242 256 282 277 263 271 272 250 218 203 221 267 296 297 324 349 359 350 359 12 31 32 29 23 357 322 316 326 336 331 322 307 292 286 274 263 261 249
202 209 215 216 217 219 211 200 217 236 227 251 281 273 256 219 194 255 317 331 354 8 16 5 3 15 28 26 14 7 357 341 341 347 336 325 320 308 299 298 289 272 267 254
208 209 207 237 236 214 204 201 208 219 213 210 238 252 202 123 87 62 46 38 37 34 32 20 18 18 16 17 13 4 353 344 339 337 333 327 314 296 294 294 296 285 275 251